Location: Muenchen
(48.1800°N, 11.5800°E)
Time: 04:46:59
(UTC+02:00)

Tiros 1 - Visible Passes

Search period start: 25 October 2014 00:00
Search period end: 03 November 2014 23:00
Orbit: 633 x 667 km, 48.4° (Epoch: 24 October)

Date Brightness Start Highest point End Pass type
(mag) Time Alt. Az. Time Alt. Az. Time Alt. Az.
25 Oct 9.1 05:18:59 18° S 05:18:59 18° S 05:20:32 10° SSE visible
26 Oct 9.5 04:45:32 11° S 04:45:32 11° S 04:45:48 10° S visible
30 Oct 9.5 19:01:54 10° S 19:02:06 11° SSE 19:02:06 11° SSE visible
31 Oct 9.1 19:27:03 10° SSW 19:28:28 17° S 19:28:28 17° S visible
01 Nov 9.0 18:13:58 10° SSE 18:16:16 14° SE 18:16:59 13° SE visible
01 Nov 9.2 19:53:17 10° SW 19:54:43 19° SW 19:54:43 19° SW visible
02 Nov 8.2 18:38:59 10° SSW 18:42:50 26° SE 18:43:09 26° SE visible
02 Nov 9.7 20:20:02 10° WSW 20:20:53 15° WSW 20:20:53 15° WSW visible
03 Nov 9.2 17:26:01 10° SSE 17:28:10 13° SE 17:30:17 10° ESE visible
03 Nov 7.6 19:05:10 10° SW 19:09:14 44° SSE 19:09:14 44° SSE visible
